This demonstration page uses our WeatherBlox Daily Observations layout. Learn more.

Hourly Observations for January 17, 2020

Temp ( °F °C ) Dew Point ( °F °C ) Humidity (%) Winds ( mph kmh ) Pressure ( in mb ) Visibility ( mi km ) Precip ( " mm )
12:15 am 00:15 Partly Cloudy 34 1 21 -6 60 60 NNW 18 30 30.46 1032 10 16.0934 0 0
12:35 am 00:35 Clear 34 1 21 -6 60 60 NNW 23 37 30.47 1032 10 16.0934 0 0
12:55 am 00:55 Partly Cloudy 34 1 21 -6 60 60 NNW 16 26 30.48 1032 10 16.0934 0 0
1:15 am 01:15 Clear 34 1 19 -7 56 56 NNW 24 39 30.48 1032 10 16.0934 0 0
1:35 am 01:35 Clear 34 1 19 -7 56 56 NNW 22 35 30.48 1032 10 16.0934 0 0
1:55 am 01:55 Clear 32 0 19 -7 60 60 NNW 21 33 30.48 1032 10 16.0934 0 0
2:15 am 02:15 Partly Cloudy 32 0 19 -7 60 60 NNW 20 31 30.5 1033 10 16.0934 0 0
2:35 am 02:35 Mostly Cloudy 32 0 19 -7 60 60 NNW 22 35 30.51 1033 10 16.0934 0 0
2:55 am 02:55 Mostly Cloudy 32 0 19 -7 60 60 NNW 22 35 30.53 1034 10 16.0934 0 0
3:15 am 03:15 Mostly Cloudy 32 0 19 -7 60 60 NNW 17 28 30.54 1034 10 16.0934 0 0
3:35 am 03:35 Mostly Cloudy 32 0 19 -7 60 60 NNW 20 31 30.54 1034 10 16.0934 0 0
3:55 am 03:55 Partly Cloudy 32 0 21 -6 64 64 N 17 28 30.56 1035 10 16.0934 0 0
4:15 am 04:15 Partly Cloudy 32 0 19 -7 60 60 N 24 39 30.58 1036 10 16.0934 0 0
4:35 am 04:35 Partly Cloudy 32 0 18 -8 55 55 NNW 24 39 30.58 1036 10 16.0934 0 0
4:55 am 04:55 Clear 32 0 16 -9 51 51 N 25 41 30.61 1037 10 16.0934 0 0
5:15 am 05:15 Clear 32 0 14 -10 47 47 NNW 26 43 30.62 1037 10 16.0934 0 0
5:55 am 05:55 Clear 30 -1 16 -9 55 55 NNW 18 30 30.63 1037 10 16.0934 0 0
6:15 am 06:15 Clear 30 -1 18 -8 59 59 N 16 26 30.65 1038 10 16.0934 0 0
6:35 am 06:35 Clear 30 -1 18 -8 59 59 NNW 24 39 30.66 1038 10 16.0934 0 0
6:55 am 06:55 Clear 30 -1 16 -9 55 55 N 18 30 30.67 1039 10 16.0934 0 0
7:15 am 07:15 Clear 30 -1 16 -9 55 55 NNW 20 31 30.68 1039 10 16.0934 0 0
7:35 am 07:35 Sunny 30 -1 16 -9 55 55 N 9 15 30.69 1039 10 16.0934 0 0
7:55 am 07:55 Sunny 28 -2 16 -9 59 59 N 13 20 30.7 1039 10 16.0934 0 0
8:15 am 08:15 Sunny 30 -1 16 -9 55 55 N 9 15 30.71 1040 10 16.0934 0 0
8:35 am 08:35 Sunny 30 -1 16 -9 55 55 N 15 24 30.72 1040 10 16.0934 0 0
8:55 am 08:55 Sunny 30 -1 14 -10 51 51 N 18 30 30.74 1041 10 16.0934 0 0
9:15 am 09:15 Sunny 30 -1 14 -10 51 51 N 18 30 30.75 1041 10 16.0934 0 0
9:35 am 09:35 Sunny 30 -1 14 -10 51 51 NNW 20 31 30.74 1041 10 16.0934 0 0
9:55 am 09:55 Sunny 30 -1 14 -10 51 51 NNW 17 28 30.74 1041 10 16.0934 0 0
10:15 am 10:15 Sunny 32 0 16 -9 51 51 NNW 15 24 30.75 1041 10 16.0934 0 0
10:35 am 10:35 Sunny 32 0 16 -9 51 51 NNW 12 19 30.75 1041 10 16.0934 0 0
10:55 am 10:55 Sunny 32 0 16 -9 51 51 NNW 17 28 30.76 1042 10 16.0934 0 0
11:15 am 11:15 Sunny 32 0 16 -9 51 51 NNW 18 30 30.76 1042 10 16.0934 0 0
11:35 am 11:35 Sunny 32 0 16 -9 51 51 N 10 17 30.76 1042 10 16.0934 0 0
11:55 am 11:55 Sunny 32 0 16 -9 51 51 NNW 15 24 30.75 1041 10 16.0934 0 0
12:15 pm 12:15 Sunny 34 1 16 -9 48 48 NNW 13 20 30.75 1041 10 16.0934 0 0
12:35 pm 12:35 Sunny 34 1 16 -9 48 48 NNE 10 17 30.74 1041 10 16.0934 0 0
12:55 pm 12:55 Sunny 34 1 14 -10 44 44 NNE 10 17 30.74 1041 10 16.0934 0 0
1:15 pm 13:15 Sunny 34 1 16 -9 48 48 N 8 13 30.74 1041 10 16.0934 0 0
1:35 pm 13:35 Sunny 34 1 18 -8 51 51 NW 10 17 30.74 1041 10 16.0934 0 0
1:55 pm 13:55 Sunny 34 1 14 -10 44 44 NNE 5 7 30.74 1041 10 16.0934 0 0
2:15 pm 14:15 Sunny 34 1 16 -9 48 48 NW 12 19 30.73 1041 10 16.0934 0 0
2:35 pm 14:35 Sunny 34 1 14 -10 44 44 N 8 13 30.73 1041 10 16.0934 0 0
2:55 pm 14:55 Sunny 34 1 14 -10 44 44 N 8 13 30.74 1041 10 16.0934 0 0
3:15 pm 15:15 Sunny 34 1 14 -10 44 44 NNW 8 13 30.74 1041 10 16.0934 0 0
3:35 pm 15:35 Sunny 34 1 12 -11 41 41 NNE 9 15 30.73 1041 10 16.0934 0 0
3:55 pm 15:55 Sunny 34 1 14 -10 44 44 N 7 11 30.72 1040 10 16.0934 0 0
4:15 pm 16:15 Sunny 32 0 12 -11 44 44 N 9 15 30.72 1040 10 16.0934 0 0
4:35 pm 16:35 Sunny 32 0 12 -11 44 44 N 6 9 30.73 1041 10 16.0934 0 0
4:55 pm 16:55 Sunny 32 0 12 -11 44 44 N 5 7 30.73 1041 10 16.0934 0 0
5:15 pm 17:15 Clear 32 0 12 -11 44 44 N 6 9 30.73 1041 10 16.0934 0 0
5:35 pm 17:35 Clear 32 0 12 -11 44 44 Calm 30.74 1041 10 16.0934 0 0
5:55 pm 17:55 Clear 32 0 12 -11 44 44 N 3 6 30.74 1041 10 16.0934 0 0
6:15 pm 18:15 Clear 32 0 14 -10 47 47 N 3 6 30.74 1041 10 16.0934 0 0
6:35 pm 18:35 Clear 30 -1 14 -10 51 51 Calm 30.74 1041 10 16.0934 0 0
6:55 pm 18:55 Clear 30 -1 14 -10 51 51 N 5 7 30.75 1041 10 16.0934 0 0
7:15 pm 19:15 Clear 30 -1 14 -10 51 51 NNE 5 7 30.74 1041 10 16.0934 0 0
7:35 pm 19:35 Clear 30 -1 14 -10 51 51 NNE 5 7 30.74 1041 10 16.0934 0 0
7:55 pm 19:55 Clear 30 -1 16 -9 55 55 ENE 3 6 30.73 1041 10 16.0934 0 0
8:15 pm 20:15 Clear 30 -1 16 -9 55 55 NE 3 6 30.73 1041 10 16.0934 0 0
8:35 pm 20:35 Clear 30 -1 16 -9 55 55 NE 3 6 30.72 1040 10 16.0934 0 0
8:55 pm 20:55 Clear 28 -2 16 -9 59 59 Calm 30.73 1040 10 16.0934 0 0
9:15 pm 21:15 Clear 27 -3 18 -8 69 69 Calm 30.72 1040 10 16.0934 0 0
9:35 pm 21:35 Clear 27 -3 19 -7 74 74 Calm 30.72 1040 10 16.0934 0 0
9:55 pm 21:55 Clear 27 -3 18 -8 69 69 Calm 30.72 1040 10 16.0934 0 0
10:15 pm 22:15 Clear 27 -3 18 -8 69 69 Calm 30.72 1040 10 16.0934 0 0
10:35 pm 22:35 Clear 25 -4 19 -7 80 80 Calm 30.71 1040 10 16.0934 0 0
10:55 pm 22:55 Clear 25 -4 21 -6 86 86 Calm 30.72 1040 10 16.0934 0 0
11:15 pm 23:15 Clear 25 -4 21 -6 86 86 Calm 30.72 1040 10 16.0934 0 0
11:35 pm 23:35 Clear 27 -3 21 -6 80 80 Calm 30.72 1040 10 16.0934 0 0
11:55 pm 23:55 Clear 25 -4 21 -6 86 86 Calm 30.71 1040 10 16.0934 0 0

Powered by AerisWeather